Home > Weather > Calgary > Past weeks

Flag for Canada Weather for the Past 2 Weeks in Calgary, Alberta, Canada

Now
25 °F

Passing clouds.


Feels Like: 15 °F
Forecast: 32 / 46 °F
Wind: 9 mph from Southwest

Location: Calgary International

Current Time: Feb 13, 2016 at 2:06:57 AM

Latest Report: Feb 13, 2016 at 1:00 AM


Visibility: 15 mi

Pressure: 29.91 "Hg (26.13 "Hg at 1063m altitude)

Humidity: 100%

Dew point: 25 °F

Location of CalgaryLocation

Historic Weather in Calgary — Graph

°F

Calgary Temperature Yesterday

Maximum temperature yesterday: 30 °F (at 12:00 AM)
Minimum temperature yesterday: 25 °F (at 11:00 AM)
Average temperature yesterday: 27 °F

High & Low Weather Summary for the Past Weeks

 TemperatureHumidityPressure
High61 °F (Feb 9, 3:00 PM)100% (Feb 10, 6:00 PM)30.53 "Hg (Feb 10, 6:00 PM)
Low14 °F (Feb 2, 5:00 AM)17% (Feb 9, 3:00 PM)29.49 "Hg (Jan 30, 2:00 AM)
Average33 °F58%30.06 "Hg
* Reported Jan 29 1:00 AM — Feb 13 1:00 AM, Calgary, Weather by CustomWeather, © 2016

Note: Actual official high and low records may vary slightly from our data, if they occured in-between our weather recording intervals... More about our weather records

Advertising

Calgary Weather History for the Previous 24 Hours

 ConditionsComfort  
Time TempWeatherWind HumidityBarometerVisibility
1:00 AM
Sat, Feb 13
25 °FPassing clouds.9 mph100%29.91 "Hg15 mi
12:00 AM27 °FLight fog.5 mph93%29.93 "Hg7 mi
11:49 PM
Fri, Feb 12
27 °FIce fog.8 mph93%29.93 "Hg3 mi
11:00 PM27 °FChilly.8 mph100%29.94 "Hg0 mi
10:00 PM28 °FIce fog.7 mph93%29.97 "Hg0 mi
9:00 PM28 °FIce fog.8 mph93%29.99 "Hg0 mi
8:00 PM28 °FIce fog.6 mph100%30.01 "Hg0 mi
7:00 PM28 °FChilly.12 mph100%30.04 "Hg0 mi
6:00 PM28 °FIce fog.14 mph100%30.05 "Hg1 mi
5:00 PM28 °FIce fog.9 mph93%30.09 "Hg1 mi
4:00 PM27 °FIce fog.12 mph100%30.09 "Hg0 mi
3:00 PM27 °FIce fog.13 mph100%30.11 "Hg0 mi
2:00 PM25 °FIce fog.12 mph100%30.15 "Hg0 mi
1:00 PM25 °FIce fog.12 mph93%30.19 "Hg0 mi
12:00 PM25 °FIce fog.12 mph93%30.21 "Hg0 mi
11:00 AM25 °FIce fog.13 mph93%30.23 "Hg0 mi
10:00 AM27 °FIce fog.13 mph93%30.25 "Hg0 mi
9:00 AM27 °FIce fog.14 mph93%30.27 "Hg0 mi
8:00 AM27 °FIce fog.13 mph100%30.28 "Hg0 mi
7:00 AM27 °FIce fog.14 mph93%30.30 "Hg0 mi
6:00 AM27 °FIce fog.15 mph93%30.32 "Hg0 mi
5:00 AM27 °FIce fog.10 mph100%30.33 "Hg0 mi
4:00 AM28 °FIce fog.12 mph100%30.33 "Hg0 mi
3:00 AM28 °FChilly.10 mph100%30.34 "Hg1 mi
2:00 AM30 °FIce fog.8 mph93%30.35 "Hg1 mi
Weather by CustomWeather, © 2016

See weather overviewHow to use our weather pages